Main page
METAR-TAF:

METAR-TAF

Airports :

Araçatuba Airport

Araçatuba, São Paulo, Brazil

latitude: 21-08-39S, longitude: 050-25-35W, elevation: 415 m

Current weather observation

The report was made 12 hours and 59 minutes ago, at 09:00 UTC
Wind 14 kt from the East/Southeast
Temperature 19°C
Humidity 100%
Pressure 1011 hPa
Visibility 10 km or more
Few clouds at a height of 4000 ft
Broken clouds at a height of 9000 ft

METAR: SBAU 210900Z 12014KT 9999 FEW040 BKN090 19/19 Q1011

Time: 19:59 (21:59 UTC)


TAF: missing

Weather observations and forecasts of more than 4000 airports (METAR and TAF reports).

The available stations are represented by yellow and red dots on the map.

Hover mouse over dot to see the name of the station.

Then click to see weather observations and forecasts.

To change the map : click on the green buttons with a black cross to zoom in, on the green button with a dash to zoom out, or on the green arrows for adjacent maps.


METAR-TAF: